Погода в Верховине

Россия / Свердловская область     57°07′21″N   64°54′09″E
темп.,
°C
ветер,
м/с
пор.,
м/с
влажн.,
%
обл.,
%
осадки,
мм/ч
давл.,
гПа
погр.,
м
5 августа, чт
чт523:00+18ююв1180100 0.3 101211
02:00+19ююв226846 0.1 101240
05:00+17ю228129 0.2 101136
08:00+20ююв36848 1.1 1011249
11:00+26ю455793 1.1 1010783
14:00+30ю344575 0.0 10091269
17:00+31ююз2341100 0.0 10081462
20:00+25юв3766100 0.0 1007151
6 августа, пт
пт623:00+22ююв31174100 0.8 1005260
02:00+18вюв2397100 4.1 100667
05:00+17юв499887 4.1 1005253
08:00+19юз24855 0.0 1005269
11:00+24сз346795 0.1 10051120
14:00+25сз4460100 0.1 10051433
17:00+23зсз556793 0.6 10061143
20:00+19ссз598341 0.1 1006577
7 августа, сб
сб723:00+17ссз41088100 0.1 1007521
02:00+16ссз51086100 0.1 1006553
05:00+15ссз51186100 0.1 1006548
08:00+14сз51191100 0.9 1007517
11:00+14сз51197100 12.5 1006601
14:00+15сз61398100 15.4 1006878
17:00+14сз71598100 47.6 1006774
20:00+15ссз61498100 9.6 1006614
8 августа, вс
вс823:00+15ссз51298100 11.3 1006540
02:00+15ссз51299100 0.4 1006495
05:00+16с51098100 1.1 1007600
08:00+17ссв3898100 0.1 1008506
11:00+18ссв3696100 0.5 1010523
14:00+22ссв467850 0.3 1011960
17:00+23с576793 0.5 10121109
20:00+19ссз37915 0.8 1013153
9 августа, пн
пн923:00+17ссз39960 0.8 1014204
02:00+16ссз4109830 0.0 1014292
05:00+15сз499989 0.0 1015339
08:00+16сз4996100 0.0 1015373
11:00+17ссз4891100 0.0 1016577
14:00+19ссз467499 0.0 1016843
17:00+23с465841 0.1 10161492
20:00+19сз3674100 0.0 1017353